| time (UTC) | temp F | wind direction | speed MPH | gust MPH | rain 1hr in | rain 24hr in | rain mn in | humidity % | barometer mb |
| 20260504201525 | 70 | 161 | 14.0 | 20.0 | 0.00 | 0.00 | 0.00 | 56 | 1006.8 |
| 20260504200023 | 68 | 193 | 15.0 | 20.0 | 0.00 | 0.00 | 0.00 | 60 | 1007.5 |
| 20260504194522 | 67 | 199 | 13.0 | 21.0 | 0.00 | 0.00 | 0.00 | 62 | 1008.0 |
| 20260504193021 | 67 | 190 | 15.0 | 25.0 | 0.00 | 0.00 | 0.00 | 61 | 1008.5 |
| 20260504191523 | 67 | 198 | 13.0 | 22.0 | 0.00 | 0.00 | 0.00 | 63 | 1008.3 |
| 20260504190020 | 69 | 190 | 19.0 | 25.0 | 0.00 | 0.00 | 0.00 | 56 | 1008.0 |
| 20260504184519 | 69 | 146 | 14.0 | 24.0 | 0.00 | 0.00 | 0.00 | 58 | 1007.3 |
| 20260504183015 | 69 | 138 | 14.0 | 19.0 | 0.00 | 0.00 | 0.00 | 58 | 1007.5 |
| 20260504181513 | 68 | 175 | 12.0 | 17.0 | 0.00 | 0.00 | 0.00 | 59 | 1007.6 |
| 20260504180011 | 68 | 144 | 12.0 | 21.0 | 0.00 | 0.00 | 0.00 | 58 | 1007.1 |
| 20260504174507 | 67 | 144 | 14.0 | 20.0 | 0.00 | 0.00 | 0.00 | 59 | 1007.5 |
| 20260504173005 | 67 | 149 | 11.0 | 18.0 | 0.00 | 0.00 | 0.00 | 60 | 1007.5 |
| 20260504171501 | 66 | 178 | 16.0 | 22.0 | 0.00 | 0.00 | 0.00 | 58 | 1007.8 |
| 20260504081526 | 50 | 159 | 12.0 | 18.0 | 0.00 | 0.00 | 0.00 | 67 | 1010.1 |
| 20260504050106 | 52 | 144 | 9.0 | 16.0 | 0.00 | 0.00 | 0.00 | 63 | 1012.1 |
| 20260504044600 | 52 | 138 | 10.0 | 15.0 | 0.00 | 0.00 | 0.00 | 63 | 1012.3 |
| 20260504043054 | 52 | 147 | 9.0 | 14.0 | 0.00 | 0.00 | 0.00 | 63 | 1012.3 |
| 20260504041549 | 52 | 144 | 9.0 | 14.0 | 0.00 | 0.00 | 0.00 | 63 | 1012.5 |
| 20260504040050 | 52 | 146 | 7.0 | 12.0 | 0.00 | 0.00 | 0.00 | 64 | 1012.7 |
| 20260504034544 | 52 | 136 | 7.0 | 10.0 | 0.00 | 0.00 | 0.00 | 63 | 1012.8 |
| 20260504033044 | 51 | 136 | 6.0 | 9.0 | 0.00 | 0.00 | 0.00 | 62 | 1012.9 |
| 20260504031547 | 52 | 134 | 7.0 | 11.0 | 0.00 | 0.00 | 0.00 | 61 | 1013.0 |
| 20260504030042 | 53 | 136 | 8.0 | 13.0 | 0.00 | 0.00 | 0.00 | 58 | 1013.2 |
| 20260504024600 | 53 | 137 | 7.0 | 11.0 | 0.00 | 0.00 | 0.00 | 60 | 1013.3 |
| 20260504023041 | 53 | 122 | 6.0 | 9.0 | 0.00 | 0.00 | 0.00 | 61 | 1013.3 |
| 20260504021542 | 52 | 113 | 4.0 | 7.0 | 0.00 | 0.00 | 0.00 | 65 | 1013.3 |
| 20260504020043 | 51 | 122 | 2.0 | 4.0 | 0.00 | 0.00 | 0.00 | 69 | 1013.3 |
| 20260504014539 | 51 | 119 | 2.0 | 7.0 | 0.00 | 0.00 | 0.00 | 68 | 1013.4 |
| 20260504013039 | 51 | 92 | 2.0 | 4.0 | 0.00 | 0.00 | 0.00 | 70 | 1013.4 |
| 20260504011538 | 51 | 71 | 1.0 | 4.0 | 0.00 | 0.00 | 0.00 | 71 | 1013.4 |
| 20260504010038 | 51 | 70 | 4.0 | 6.0 | 0.00 | 0.00 | 0.00 | 70 | 1013.2 |
| 20260504004544 | 51 | 76 | 3.0 | 4.0 | 0.00 | 0.00 | 0.00 | 71 | 1013.2 |
| 20260504003043 | 51 | 86 | 3.0 | 6.0 | 0.00 | 0.00 | 0.00 | 70 | 1013.0 |
| 20260504001541 | 51 | 86 | 4.0 | 9.0 | 0.00 | 0.00 | 0.00 | 70 | 1012.8 |
| 20260504000053 | 51 | 73 | 5.0 | 6.0 | 0.00 | 0.00 | 0.00 | 70 | 1012.9 |
| 20260503234532 | 52 | 67 | 2.0 | 4.0 | 0.00 | 0.00 | 0.00 | 69 | 1013.3 |
| 20260503233028 | 52 | 61 | 3.0 | 5.0 | 0.00 | 0.00 | 0.00 | 66 | 1013.5 |
| 20260503231529 | 52 | 349 | 2.0 | 4.0 | 0.00 | 0.00 | 0.00 | 63 | 1013.9 |
| 20260503230024 | 52 | 345 | 3.0 | 6.0 | 0.00 | 0.00 | 0.00 | 61 | 1014.0 |
| 20260503224524 | 53 | 319 | 3.0 | 8.0 | 0.00 | 0.00 | 0.00 | 62 | 1014.2 |
| 20260503223023 | 53 | 339 | 2.0 | 5.0 | 0.00 | 0.00 | 0.00 | 60 | 1014.4 |
| 20260503221520 | 52 | 75 | 1.0 | 6.0 | 0.00 | 0.00 | 0.00 | 65 | 1014.6 |
| 20260503220019 | 52 | 270 | 2.0 | 7.0 | 0.00 | 0.00 | 0.00 | 61 | 1014.5 |
| 20260503214522 | 52 | 228 | 7.0 | 27.0 | 0.00 | 0.00 | 0.00 | 61 | 1015.1 |
| 20260503213016 | 55 | 198 | 15.0 | 23.0 | 0.00 | 0.00 | 0.00 | 48 | 1015.1 |
| 20260503211517 | 58 | 198 | 13.0 | 18.0 | 0.00 | 0.00 | 0.00 | 44 | 1015.1 |
| 20260503210015 | 58 | 207 | 10.0 | 18.0 | 0.00 | 0.00 | 0.00 | 44 | 1014.8 |
| 20260503204515 | 59 | 149 | 12.0 | 17.0 | 0.00 | 0.00 | 0.00 | 39 | 1014.9 |
| 20260503203024 | 60 | 170 | 17.0 | 23.0 | 0.00 | 0.00 | 0.00 | 38 | 1014.8 |